Overview Statistics Trail Chart Weather Telemetry Raw packets
 

This is the latest recevied weather packets stored in our database for station/object K4WCH. If no packets are shown the sender has not sent any weather packets the latest 10 day(s).

<< 58 59 60 61 62 63 64 >>
Time Temp. Humidity Pressure Rain* Wind** Luminosity Snow
1788265009 25.56° C 99% 1016.8 hPa 0 mm - 149 W/m² -
1788264705 25° C 99% 1016.7 hPa 0 mm - 98 W/m² -
1788264404 25° C 99% 1016.7 hPa 0 mm - 49 W/m² -
1788264099 25° C 99% 1016.9 hPa 0 mm - 45 W/m² -
1788263795 25° C 99% 1016.6 hPa 0 mm - 62 W/m² -
1788263491 24.44° C 99% 1016.6 hPa 0 mm - 43 W/m² -
1788263187 24.44° C 99% 1016.4 hPa 0 mm - 38 W/m² -
1788262886 24.44° C 99% 1016.4 hPa 0 mm - 34 W/m² -
1788262586 23.89° C 99% 1016.4 hPa 0 mm - 30 W/m² -
1788262281 23.89° C 99% 1016.5 hPa 0 mm - 27 W/m² -
1788261981 23.89° C 99% 1016.4 hPa 0 mm - 23 W/m² -
1788261675 23.89° C 99% 1016.2 hPa 0 mm - 17 W/m² -
1788261375 23.89° C 99% 1016.3 hPa 0 mm - 14 W/m² -
1788261073 23.89° C 99% 1016.2 hPa 0 mm - 8 W/m² -
1788260769 23.89° C 99% 1016.4 hPa 0 mm - 5 W/m² -
1788260466 23.89° C 99% 1016.2 hPa 0 mm - 2 W/m² -
1788260161 23.89° C 99% 1016.3 hPa 0 mm - 1 W/m² -
1788259860 23.89° C 99% 1016.2 hPa 0 mm - 0 W/m² -
1788259557 23.89° C 99% 1016.2 hPa 0 mm - 0 W/m² -
1788259252 23.89° C 99% 1016 hPa 0 mm - 0 W/m² -
1788258951 23.89° C 99% 1015.9 hPa 0 mm - 0 W/m² -
1788258647 23.89° C 99% 1016 hPa 0 mm - 0 W/m² -
1788258347 23.89° C 99% 1015.9 hPa 0 mm - 0 W/m² -
1788258042 24.44° C 99% 1016 hPa 0 mm - 0 W/m² -
1788257738 24.44° C 99% 1015.8 hPa 0 mm - 0 W/m² -

* Rain latest hour (hover to see other rain measurements)
** Current wind speed in m/s (hover to see current wind gust speed)